sat.trackr.live / text

‹ back to catalog

IRIDIUM 139

NORAD 42963 · 2017-061J

PAYLOAD ACTIVE UNKNOWN

§ Identity

Operator
Country
US
Launch date
2017-10-09
Launch site
AFWTR
Launch vehicle
Mass (kg)
RCS (m²)

Purposes: comms

External: N2YO · Heavens-Above · Gunter

§ Orbital elements

Epoch: 2026-09-20T05:09:22.737600Z

Period
100.40 min
Inclination
86.4026°
Eccentricity
0.0002180
Mean motion
14.34217745 rev/d
Perigee alt
776.1 km
Apogee alt
779.2 km
Semi-major
7,155.8 km
B*
4.8321e-6
RAAN
345.6154°
Arg perigee
93.9719°
Mean anomaly
266.1726°
Rev number
46,846

§ Raw data

IRIDIUM 1391 42963U 17061J   26263.21484650  .00000033  00000+0  48321-5 0  99962 42963  86.4026 345.6154 0002180  93.9719 266.1726 14.34217745468465

JSON: /api/v1/satellites/42963 · /tle

For live sub-satellite position, see the globe view (requires WebGL).

§ Visibility from observer

Set your observer location to see the next 7 days of passes ≥ 10°. The values pass through the URL so the page stays shareable.

No JS? Fill the form by hand. The geolocation button needs JavaScript.